Regional Weather Roundup
Issued by NWS

Home | Current Version | Previous Version | Text Only | Print | Product List | Glossary On
Versions: 1 2 3 4 5 6 7 8 9 10 11 12 13 14 15 16 17 18 19 20 21 22 23 24 25 26 27 28 29 30 31 32 33 34 35 36 37 38 39 40 41 42 43 44 45 46 47 48 49 50
000
ASUS43 KMPX 221101
RWRMN
WEATHER ROUNDUP FOR MINNESOTA
NATIONAL WEATHER SERVICE TWIN CITIES/CHANHASSEN MN
600 AM CDT WED OCT 22 2014


NOTE: "FAIR" INDICATES FEW OR NO CLOUDS BELOW 12,000 FEET WITH NO
SIGNIFICANT WEATHER AND/OR OBSTRUCTIONS TO VISIBILITY. N/A MEANS
CURRENT SKY AND/OR WEATHER CONDITIONS ARE NOT AVAILABLE.

MNZ060>063-068>070-221200-
   Twin Cities Metro

CITY           SKY/WX    TMP DP  RH WIND       PRES   REMARKS
TWIN CITIES    CLEAR     40  35  83 SE8       30.21S
ST PAUL        CLEAR     41  37  86 SE13      30.22S
CRYSTAL        CLEAR     43  36  76 SE13      30.19R
BLAINE         CLEAR     43  39  87 SE10G16   30.20R
LAKEVILLE      CLEAR     37  36  93 SE8       30.20S
EDEN PRAIRIE   CLEAR     41  37  86 SE9       30.18S
SOUTH ST PAUL  CLEAR     41  36  82 SE9       30.22S
LAKE ELMO      FAIR      41  37  87 S9        30.23S
$$
MNZ001>005-007-008-013>017-022>024-027-028-221200-
   Northwest Minnesota

CITY           SKY/WX    TMP DP  RH WIND       PRES   REMARKS
BEMIDJI        CLEAR     44  38  80 SE10      30.01S
HALLOCK        PTCLDY    55  43  62 S23G32    29.81R
ROSEAU         CLEAR     50  41  71 S17       29.88F
WARROAD        CLEAR     48  43  81 S12       29.91F
THIEF RVR FALL CLEAR     54  39  58 SE15G23   29.88S
CROOKSTON      PTCLDY    55  43  62 S29G37    29.85S
FOSSTON        CLEAR     48  37  66 SE15G21   29.92S
DETROIT LAKES  PTCLDY    50  41  71 SE17G24   29.96S
MOORHEAD       PTCLDY    54  45  71 SE24G30   29.88S
PARK RAPIDS    CLEAR     45  38  76 SE20      30.02F
MAHNOMEN       PTSUNNY   52  40  64 SE16G23   29.92S
$$
MNZ006-009>011-018-025>026-221200-
   North Central Minnesota

CITY           SKY/WX    TMP DP  RH WIND       PRES   REMARKS
BAUDETTE       CLEAR     43  37  79 SE8       29.97F
FLAG ISLAND    CLEAR     46  41  81 S25       29.91F
INTL FALLS     CLEAR     42  36  79 SE9       30.06S
WASKISH        CLEAR     45  39  81 SE13      29.99F
BIG FORK       CLEAR     43  36  75 S10       30.09S
LONGVILLE      PTCLDY    45  37  76 SE10      30.08S
GRAND RAPIDS   CLEAR     39  34  81 SE13G21   30.11S
CRANE LAKE     CLEAR     39  36  87 SE5       30.14S
ORR            FAIR      41  34  75 SE10      30.10S
COOK           CLEAR     41  36  81 S8        30.15R
WALKER         FAIR      45  38  75 SE10G22   30.04S
$$
MNZ012-019>021-037-221200-
   Northeast Minnesota

CITY           SKY/WX    TMP DP  RH WIND       PRES   REMARKS
DULUTH         CLEAR     39  34  82 S9        30.20R
ELY            CLEAR     39  36  87 S8        30.18R
HIBBING        CLEAR     36  32  85 SE7       30.16S
EVELETH        CLEAR     34  32  93 CALM      30.18S
DULUTH HARBOR  CLEAR     41  36  81 CALM      30.23S
TWO HARBORS    CLEAR     36  25  64 CALM      30.21S
SILVER BAY     CLEAR     30  28  93 CALM      30.21S
GRAND MARAIS     N/A     34  32  92 CALM      30.26S
G MARAIS ARPRT FOG       36  34  93 SE7       30.23S VSB 1/2
$$
MNZ029>031-032-039>041-046>048-054>057-064-221200-
   West Central Minnesota

CITY           SKY/WX    TMP DP  RH WIND       PRES   REMARKS
FERGUS FALLS   CLEAR     52  37  58 S24G30    29.96S
WHEATON        CLEAR     50  41  71 SE24G31   29.91F
MORRIS         PTCLDY    48  41  76 SE20G29   29.98S
ALEXANDRIA     CLEAR     47  39  74 SE17G25   30.04F
ELBOW LAKE     FAIR      49  40  72 SE23G31   29.95F
WADENA         CLEAR     45  37  76 SE14G21   30.02F
GLENWOOD       CLEAR     46  39  76 SE17G23   30.05F
APPLETON       PTCLDY    52  41  66 SE15G22   29.99F
BENSON         CLOUDY    48  39  71 S17       30.02F
ORTONVILLE     CLEAR     50  41  71 SE18G25   29.94F
MADISON        PTCLDY    55  45  67 SE17      29.98S
WILLMAR        FAIR      46  37  71 SE17G24   30.08F
$$
MNZ033>034-036-042>043-049>051-058-059-221200-
   Central Minnesota

CITY           SKY/WX    TMP DP  RH WIND       PRES   REMARKS
ST CLOUD       PTCLDY    44  37  76 SE9       30.15R
SAUK CENTRE    FAIR      44  37  78 SE15      30.08F
PAYNESVILLE    CLEAR     42  37  80 E20       30.10F
AITKIN         PTCLDY    46  37  71 SE15G22   30.12R
PINE RIVER     PTCLDY    45  37  76 SE13      30.11S
BRAINERD       PTCLDY    42  37  82 S10G20    30.11S
STAPLES        CLEAR     43  37  81 SE10G18   30.06F
LONG PRAIRIE   FAIR      43  36  75 SE14      30.08S
LITTLE FALLS   CLEAR     41  36  81 SE9       30.12R
LITCHFIELD     CLEAR     45  39  81 SE12G18   30.13S
BUFFALO        CLEAR     42  36  80 SE5       30.17S
MAPLE LAKE     PTCLDY    43  39  85 SE8       30.17R
$$
MNZ037-044-045-052-053-221200-
   East Central Minnesota

CITY           SKY/WX    TMP DP  RH WIND       PRES   REMARKS
PRINCETON      CLEAR     43  37  81 SE7       30.18R
MORA           CLEAR     37  34  87 SE7       30.20S
CAMBRIDGE      CLEAR     43  34  70 SE7       30.18R
RUSH CITY      FAIR      40  36  84 SE8       30.21R
MOOSE LAKE     CLEAR     39  34  81 S6        30.17S
HINCKLEY       FAIR      37  36  93 CALM      30.20S
CLOQUET        CLEAR     36  34  93 E3        30.19R
MCGREGOR       CLEAR     39  36  87 S10       30.16S
$$
MNZ071>073-080-081-089-090-097-098-221200-
   Southwest Minnesota

CITY           SKY/WX    TMP DP  RH WIND       PRES   REMARKS
MONTEVIDEO     PTCLDY    48  41  76 S15G22    30.02F
GRANITE FALLS  MOCLDY    48  40  74 SE14G20   30.05F
CANBY          MOCLDY    52  44  73 SE12      29.99S
MARSHALL       MOCLDY    54  39  58 S17G24    30.01F
REDWOOD FALLS  MOCLDY    46  38  73 SE17      30.09R
OLIVIA         MOCLDY    46  37  71 SE16G22   30.08S
PIPESTONE      PTCLDY    52  43  71 S17G23    30.01S
WINDOM         MOCLDY    48  39  71 SE16G22   30.10R
WORTHINGTON    PTCLDY    48  39  71 S14       30.08S
JACKSON        MOCLDY    46  37  71 S16       30.12R
TRACY          PTCLDY    51  41  70 S21G30    30.03F
SLAYTON        PTCLDY    50  41  72 SE17      30.06S
$$
MNZ065>067-074>077-082>085-091>093-221200-
   South Central Minnesota

CITY           SKY/WX    TMP DP  RH WIND       PRES   REMARKS
MANKATO        CLEAR     43  34  70 S14G21    30.17R
NEW ULM        PTCLDY    45  39  81 SE16      30.13S
ST JAMES       CLOUDY    45  37  76 SE17G23   30.14S
FAIRMONT       PTCLDY    43  34  70 SE17      30.14F
GLENCOE        CLEAR     43  39  85 SE6       30.16R
FARIBAULT      CLEAR     43  37  81 SE9       30.20S
OWATONNA       CLEAR     41  36  81 SE15G23   30.20R
WASECA         CLEAR     37  32  81 SE10G18   30.21R
ALBERT LEA     CLEAR     39  37  93 S13G20    30.21R
$$
MNZ078>079-086>088-094>096-221200-
   Southeast Minnesota

CITY           SKY/WX    TMP DP  RH WIND       PRES   REMARKS
ROCHESTER      CLEAR     38  35  89 S12       30.25R
RED WING       CLEAR     43  36  75 SE10      30.24S
STANTON        CLEAR     42  36  80 S12       30.19F
DODGE CENTER   CLEAR     37  36  93 SE10      30.22S
WINONA         CLEAR     36  34  93 CALM      30.29R
AUSTIN         CLEAR     37  36  93 SE9       30.23R
PRESTON        CLEAR     36  34  92 S12       30.27R
$$
ABBREVIATIONS USED IN REMARKS
   TC - TEMPERATURES IN CELSIUS
  WCI - WIND CHILL INDEX
   HX - HEAT INDEX
  VSB - VISIBILITY
$$



USA.gov is the U.S. government's official web portal to all federal, state and local government web resources and services.